Helicity
2 2 5 16 30 38 40 38 26 2 1 6 -13 -19 -57 -82 -86 -40 121 63 32 14 0 17 26 52 46 56 48 68 100 86 25 50 42 71 60 57 14 -92 72 167 208 325 386
4 5 5 20 34 43 48 40 27 17 26 17 4 -9 -38 -79 -22 148 98 52 31 25 27 36 54 59 75 23 77 63 56 -26 -6 46 64 42 9 76 69 43 -67 99 166 223 264
1 9 11 22 35 45 49 50 41 39 34 18 0 -10 -11 -65 19 162 85 48 33 23 28 16 34 57 25 83 41 60 27 -37 -62 -33 68 36 35 9 83 109 60 -2 309 72 350
4 8 10 22 35 49 50 40 42 40 22 8 -4 -35 -59 -41 4 103 33 31 14 18 39 45 67 57 103 93 74 47 4 -8 -105 -78 65 18 27 12 22 35 -41 59 -9 42 113
4 11 11 21 35 47 38 19 37 36 19 2 -13 -27 -13 40 132 45 37 28 36 44 45 55 53 91 138 51 17 10 17 -28 -38 -33 28 64 -16 36 82 30 -4 -21 174 11 26
-2 9 10 22 33 43 23 13 37 35 25 14 -10 -21 55 139 81 27 53 51 23 51 59 47 89 76 91 59 -1 61 11 7 -42 -9 -2 8 28 -19 130 18 25 -40 -14 30 56
0 7 10 19 25 38 19 9 34 45 39 11 8 33 36 121 96 74 47 52 58 46 73 50 44 68 39 56 31 23 95 58 68 27 24 -45 25 9 18 1 17 15 -145 60 132
4 12 14 17 12 27 -3 -10 15 46 43 14 8 38 50 179 99 93 63 13 46 24 64 47 40 19 44 133 150 112 71 -9 51 54 11 42 65 99 60 30 4 -22 -11 -54 -128
7 15 17 14 3 19 -17 -22 20 29 36 0 -7 53 91 112 69 17 58 51 28 33 24 71 48 42 55 61 -71 9 -44 -31 9 64 18 -5 78 81 29 3 -56 18 2 -15 -23
17 20 19 13 -1 12 -26 -6 17 30 63 33 20 53 116 85 46 74 5 58 65 56 36 93 84 91 96 73 -1 -87 -18 5 46 3 19 21 76 33 49 28 23 48 41 -4 -24
23 27 21 17 9 11 15 29 22 118 159 169 45 26 72 65 45 70 45 16 53 28 162 62 130 112 63 46 28 -25 -20 -12 54 -13 35 35 61 22 -3 94 69 74 81 19 -45
18 29 23 16 10 18 8 53 102 112 144 43 60 48 41 66 83 71 30 78 84 145 76 150 143 40 29 51 8 -33 -53 -77 44 29 74 57 89 27 -40 -17 43 66 93 112 45
25 20 26 24 17 -3 77 83 56 71 120 91 69 82 41 73 94 95 62 45 75 120 135 144 86 21 41 83 -24 -45 -29 -10 52 107 109 108 49 -30 -7 42 77 83 126 168 89
27 20 31 8 24 66 103 67 66 57 175 72 66 97 67 40 97 80 67 77 95 89 110 100 47 32 55 29 -35 -3 23 44 39 88 53 53 34 112 90 89 88 71 129 218 195
29 27 32 28 32 88 76 70 61 60 145 103 107 59 64 80 88 56 61 54 131 69 87 86 42 30 45 13 45 43 132 79 88 70 100 26 19 243 89 182 128 82 130 206 300
33 37 11 19 88 73 67 60 60 113 156 143 131 97 95 78 87 38 68 50 73 62 69 45 8 58 45 35 23 45 55 76 58 46 58 -15 36 184 167 90 118 64 177 205 423
44 59 53 37 72 64 62 84 110 132 107 108 129 96 124 122 94 62 100 109 91 106 165 81 31 39 -6 34 -12 123 123 -1 10 59 26 -17 17 123 76 76 106 82 212 191 459
46 37 45 76 39 54 65 85 156 98 117 116 106 74 145 134 82 53 76 63 91 105 104 123 86 5 22 6 33 43 61 -22 58 93 39 16 8 4 7 94 135 79 92 190 491
33 36 39 54 36 49 75 115 99 122 97 91 81 127 126 127 83 90 103 75 84 78 127 100 48 30 1 39 9 40 47 100 77 191 78 23 56 61 206 218 242 153 152 307 663
41 41 66 43 38 47 104 108 100 91 92 82 122 147 131 118 144 105 77 84 79 68 91 63 59 -1 27 23 57 2 50 63 95 42 77 23 48 131 210 228 266 193 184 316 627
39 46 54 49 49 104 106 108 111 95 82 114 123 126 134 125 102 80 81 117 87 71 48 51 73 68 6 23 71 38 46 61 96 40 144 45 59 124 137 155 209 205 170 302 583
39 85 60 45 105 88 105 96 72 93 82 96 102 99 117 93 103 74 91 114 86 56 67 60 42 91 39 31 -4 48 34 64 85 93 247 99 100 124 123 140 177 198 214 300 372
59 70 52 52 108 111 104 105 93 86 101 98 115 97 76 76 128 74 89 118 95 82 63 52 52 65 18 13 1 42 97 85 90 78 133 132 112 52 119 165 197 218 250 332 414
49 100 77 98 102 126 112 116 114 71 89 67 86 63 105 93 104 76 76 96 80 84 42 25 52 50 55 18 32 75 96 59 80 43 162 74 116 147 195 243 265 252 223 298 344
72 82 74 114 122 153 116 90 118 105 69 54 78 105 119 128 99 109 96 77 76 86 48 50 59 31 24 12 54 36 59 77 37 96 43 142 73 89 187 262 287 183 227 249 377
97 96 120 123 139 139 102 101 114 93 81 109 95 88 90 129 132 108 104 76 73 61 78 39 60 34 12 19 29 44 43 82 28 71 53 84 47 90 158 174 137 169 224 247 320
107 120 125 97 125 120 114 107 91 81 72 86 74 79 70 109 87 50 53 42 52 61 65 62 48 51 45 12 12 27 15 62 69 14 61 55 129 187 179 174 155 121 151 222 263
Wind_Speed
64 66 68 68 67 66 67 69 68 64 60 53 52 50 47 47 48 44 64 62 61 62 60 55 56 56 55 45 39 28 27 37 47 67 77 71 71 68 64 73 84 62 65 53 47
64 67 69 69 67 65 68 70 67 60 55 50 49 50 49 46 46 59 61 62 62 67 57 61 61 57 54 52 46 34 23 26 34 67 76 71 59 58 68 71 73 68 64 56 52
65 68 70 70 67 64 68 67 62 57 53 49 48 48 50 46 44 60 68 62 63 62 52 52 51 55 52 50 48 36 24 21 22 61 65 64 67 65 68 72 67 70 73 61 57
65 69 71 70 68 64 67 63 55 52 50 47 48 48 48 46 59 63 62 66 65 60 53 52 55 56 58 50 51 41 16 16 15 35 68 53 58 64 72 75 66 72 67 57 64
66 69 71 71 69 66 66 60 51 49 48 46 46 49 51 47 59 58 63 63 59 56 56 54 54 59 55 49 46 31 18 18 19 52 70 72 70 67 75 72 70 65 65 75 57
67 70 71 72 70 67 64 55 47 47 45 46 43 47 45 57 59 59 61 62 62 52 53 50 51 49 44 43 37 23 26 11 8 27 52 73 72 77 83 67 74 81 72 64 47
66 70 71 72 69 65 63 51 44 47 43 43 42 42 40 54 63 61 62 69 59 47 49 46 45 44 45 42 33 18 6 13 2 12 1 60 74 80 76 78 77 77 71 57 49
66 69 70 72 67 64 61 49 42 39 38 41 42 39 44 57 73 60 68 73 61 44 40 39 34 36 35 27 19 11 32 42 27 18 4 15 58 56 63 76 79 67 60 63 79
66 69 70 70 66 64 58 46 46 41 32 31 42 38 46 60 79 59 80 73 53 40 37 35 35 36 43 59 45 40 44 54 46 34 39 51 49 45 52 62 73 64 68 68 69
66 67 70 69 62 63 54 37 40 43 33 32 44 40 51 66 64 64 82 69 48 39 39 39 38 44 55 58 50 34 27 42 46 47 40 42 56 43 38 43 54 56 61 63 62
66 65 69 65 58 65 59 44 45 44 59 52 50 50 52 63 51 80 88 67 64 51 62 45 57 68 52 43 38 19 6 14 46 43 34 37 48 39 33 28 36 49 51 59 57
66 63 65 63 54 68 57 56 51 40 43 45 52 46 60 65 56 78 92 75 66 69 64 52 63 57 45 47 44 38 35 36 36 37 37 37 40 37 31 25 30 35 46 56 58
66 61 62 61 51 57 67 60 44 41 41 44 50 56 65 66 61 89 93 71 69 69 67 57 61 55 55 54 55 37 42 21 39 40 39 44 37 33 26 27 26 30 41 47 53
63 56 61 58 50 56 59 53 42 39 46 56 58 58 66 63 61 74 87 65 65 66 61 53 57 60 60 57 49 24 32 34 38 33 29 29 27 21 23 27 30 39 41 43 47
60 52 60 57 51 57 52 45 39 37 64 56 55 48 61 79 65 76 87 64 72 61 58 59 55 57 58 39 15 17 33 33 39 40 36 28 33 28 26 26 32 37 39 40 43
56 51 56 49 50 56 47 41 36 51 66 53 53 64 69 77 71 71 84 82 62 58 62 57 39 52 57 22 32 41 32 34 42 39 37 23 25 19 24 32 34 42 35 38 50
49 48 54 51 54 53 44 40 51 67 52 56 58 61 64 76 74 84 89 106 98 85 79 62 52 56 74 55 45 41 35 35 12 29 26 22 14 19 32 30 32 34 31 36 35
46 42 46 55 53 48 42 46 65 50 53 50 53 55 66 79 71 80 77 89 91 83 65 74 63 65 61 54 37 33 31 35 22 27 28 23 25 22 26 27 27 29 33 33 31
41 42 45 61 53 44 46 59 56 52 46 56 51 62 63 76 71 79 80 84 80 84 77 71 56 42 53 39 52 37 37 33 33 39 36 28 24 31 30 25 27 28 29 26 27
43 43 47 55 50 46 50 50 45 45 47 50 64 62 70 73 78 81 83 70 74 70 55 56 55 41 40 56 38 38 33 26 28 28 34 32 27 25 25 24 30 29 30 24 18
40 44 47 49 49 50 51 48 43 47 49 54 58 60 61 69 69 73 77 61 72 68 53 51 44 43 39 58 51 38 33 25 34 30 35 43 37 27 23 22 25 30 29 28 22
42 44 49 48 52 47 47 43 42 45 48 49 50 56 59 64 66 68 73 66 61 63 64 54 43 43 38 44 55 31 35 28 26 30 31 34 37 28 25 23 21 25 25 16 12
42 44 45 44 49 45 41 43 43 43 49 50 51 56 58 61 68 65 65 55 57 60 63 54 49 49 44 34 49 37 37 34 37 34 24 35 36 32 25 22 24 24 25 21 14
41 41 47 47 43 41 42 43 45 43 45 49 49 51 62 62 61 62 65 53 50 53 53 43 43 41 38 24 40 41 38 34 31 28 33 26 33 30 28 29 25 25 28 25 19
41 38 41 44 45 41 42 41 44 46 44 47 49 57 62 66 64 64 61 57 46 50 53 49 46 44 21 10 23 39 38 36 29 31 30 34 30 29 30 32 29 27 27 27 22
35 35 39 40 36 39 43 42 42 44 45 48 52 57 57 61 61 65 60 54 50 48 51 49 45 43 37 23 31 34 38 36 33 33 35 34 32 39 38 30 24 25 26 23 22
34 34 35 34 35 39 40 38 38 40 43 48 52 58 60 56 51 44 41 34 36 44 47 47 49 45 38 33 42 30 40 39 38 34 36 33 40 46 36 34 27 26 28 25 28
Wind_Direction
6 6 8 11 13 15 13 9 7 7 9 16 18 19 19 15 13 16 11 8 7 3 2 1 2 2 356 355 348 341 317 317 306 284 272 272 273 265 265 257 257 257 252 270 282
6 6 8 10 14 16 13 10 10 13 17 22 23 21 17 15 16 18 13 9 6 3 4 1 359 359 357 354 352 342 319 301 308 293 278 273 272 270 258 255 254 253 252 263 271
4 5 7 10 14 16 13 13 15 18 21 25 25 23 23 22 18 13 10 8 4 1 360 358 358 358 352 356 351 352 329 315 302 297 284 279 269 263 261 253 251 247 251 261 264
5 4 6 10 13 17 14 15 20 23 24 27 26 24 21 24 15 9 8 5 2 3 3 2 2 358 357 357 353 345 332 324 301 309 282 283 272 262 251 248 245 244 248 250 254
4 5 7 9 11 15 15 16 24 26 26 26 26 24 24 24 14 7 7 4 4 7 6 4 2 1 1 354 355 351 356 352 344 305 276 264 257 260 244 245 244 246 255 239 255
1 3 5 8 10 15 16 20 27 28 28 25 24 20 27 21 14 8 8 6 5 7 6 7 8 7 2 2 5 13 4 357 299 223 227 248 259 250 246 247 241 236 234 234 247
1 1 4 7 11 15 16 22 27 26 30 29 28 26 24 20 13 12 9 6 3 4 6 10 11 13 9 9 22 12 5 8 271 177 269 255 242 234 250 245 243 240 238 238 251
0 1 4 7 11 14 15 21 24 24 30 32 30 26 28 24 11 14 9 4 5 9 13 13 19 15 14 10 356 349 13 16 30 68 69 301 249 253 245 241 238 237 237 241 242
359 2 3 7 11 13 15 27 30 30 32 34 29 32 27 13 11 12 8 2 2 16 15 22 24 19 17 10 12 27 6 351 3 262 301 229 246 258 261 244 231 235 230 234 246
359 3 3 7 12 13 14 22 25 28 35 38 30 35 24 11 11 13 7 6 15 13 14 22 26 17 14 14 10 10 20 5 347 334 290 250 228 254 264 248 233 232 233 241 249
359 6 5 10 14 12 15 18 18 25 22 30 28 29 15 13 18 14 10 12 20 22 17 22 23 13 15 18 21 27 66 46 303 310 273 249 234 248 252 254 242 241 241 248 250
357 7 9 11 17 12 18 20 21 27 26 32 28 26 16 11 15 14 13 20 19 18 20 27 17 16 16 17 17 23 16 14 249 271 255 248 235 239 258 278 258 244 250 250 247
357 7 12 13 18 18 18 18 28 31 30 32 26 21 15 15 20 13 14 16 18 18 19 21 21 20 17 18 7 27 6 281 251 263 252 231 240 237 261 288 290 278 269 261 251
0 10 12 12 19 16 16 20 30 34 28 22 22 23 17 17 22 16 17 19 21 16 20 27 22 20 19 16 18 49 274 252 242 243 236 250 239 257 279 288 300 297 276 268 255
1 12 11 17 15 15 14 25 34 39 9 17 22 25 20 23 16 15 19 23 19 19 23 16 21 21 20 28 65 74 263 243 228 226 219 227 260 262 280 289 298 301 276 266 259
4 13 10 16 17 13 19 28 38 23 10 20 21 15 18 19 20 18 21 27 32 25 23 23 38 34 24 42 53 298 275 240 221 226 224 276 265 274 282 284 289 307 291 280 277
7 13 13 15 11 13 23 29 21 14 19 14 13 14 19 15 17 16 18 21 22 17 19 22 32 33 19 25 37 309 310 56 8 243 249 271 309 287 300 291 285 304 297 289 271
8 14 16 12 11 19 24 24 12 19 20 20 16 14 18 16 16 15 18 19 23 23 20 20 23 26 26 26 35 6 296 18 301 258 244 283 246 256 302 291 290 298 302 307 285
9 13 10 360 11 23 23 16 16 19 21 15 17 18 17 15 14 16 18 20 22 22 22 20 25 30 31 38 5 315 316 248 247 232 243 245 252 252 301 300 311 306 308 302 290
3 3 358 5 14 18 22 21 24 27 22 20 16 18 12 12 14 15 16 22 20 24 33 25 20 39 41 29 354 339 301 281 257 243 236 229 226 244 299 294 308 313 317 288 304
3 357 357 10 13 18 18 23 29 25 24 20 17 16 15 13 13 14 15 21 22 20 29 27 31 29 46 22 349 324 313 279 245 266 238 220 219 272 278 287 301 306 309 313 307
354 356 358 7 9 20 22 27 27 25 23 23 21 17 14 12 13 14 14 19 24 24 22 27 31 25 36 43 9 341 310 282 269 269 265 224 216 284 279 279 290 315 315 305 307
347 349 1 11 8 15 24 26 26 23 21 20 18 17 14 12 10 13 15 23 25 25 23 25 28 25 29 39 2 339 305 285 264 263 274 221 221 298 284 289 302 318 322 319 299
343 355 354 9 17 15 16 20 19 22 21 18 17 15 11 12 13 11 11 22 25 28 26 33 30 32 27 28 16 316 301 300 286 268 249 239 247 280 293 298 299 313 326 324 320
340 352 356 359 7 17 16 17 17 15 19 16 14 13 10 8 9 11 14 15 26 27 25 30 25 22 30 123 54 342 301 293 292 274 242 255 246 284 287 291 292 306 317 327 319
344 352 357 1 16 14 11 13 15 14 15 14 11 9 10 7 8 6 10 14 17 19 23 26 22 22 29 63 24 351 301 292 282 278 260 266 252 300 291 276 287 308 310 310 314
340 348 358 3 8 7 9 14 16 17 14 13 10 7 6 9 11 10 14 15 13 15 19 24 21 24 25 19 325 329 300 287 271 281 268 260 274 293 282 282 277 297 307 305 301